Location: ????????
(55.6333°N, 37.7000°E)
Time: 03:49:11
(UTC+00:00)

Cosmos 2333 Rocket - Pass Details

Date: 19 May 2025
Orbit: 840 x 862 km, 70.8° (Epoch: 15 June)

Event Time Altitude Azimuth Distance (km) Brightness Sun altitude
Rises 22:05:26 0° 321° (NW) 3,442 6.0 -13.9°
Reaches altitude 10° 22:08:14 10° 310° (NW) 2,498 5.1 -13.9°
Maximum altitude 22:12:56 27° 255° (WSW) 1,588 3.4 -13.7°
Enters shadow 22:15:54 18° 212° (SSW) 1,991 3.6 -13.6°
